Change the Weather History Date:

Tuesday, October 29, 2013

  Actual Average Record
Temperature  
Mean Temperature 42 °F -  
Max Temperature 48 °F 58 °F 77 °F (2004)
Min Temperature 35 °F 41 °F 26 °F (2011)
Degree Days  
Heating Degree Days 24    
Moisture  
Dew Point 32 °F    
Average Humidity 72    
Maximum Humidity 81    
Minimum Humidity 58    
Precipitation  
Precipitation 0.00 in - - ()
Sea Level Pressure  
Sea Level Pressure 30.26 in    
Wind  
Wind Speed 5 mph (ESE)    
Max Wind Speed 10 mph    
Max Gust Speed -    
Visibility 10 miles    
Events      
Averages and records for this station are not official NWS values.
T = Trace of Precipitation, MM = Missing Value Source: NWS Daily Summary

Daily Weather History Graph

Daily Weather History Graph

Search for Another Location

Airport or City:

Trip Planner

Search our weather history database for the weather conditions in past years. The results will help you decide how hot, cold, wet, or windy it might be!

Date:

Astronomy

Oct. 29, 2013 Rise Set
Actual Time 7:39 AM CDT 6:00 PM CDT
Civil Twilight 7:09 AM CDT 6:30 PM CDT
Nautical Twilight 6:35 AM CDT 7:04 PM CDT
Astronomical Twilight 6:02 AM CDT 7:37 PM CDT
Moon 2:19 AM CDT (10/29) 3:23 PM CDT (10/29)
Length of Visible Light 11h 20m
Length of Day
10h 20m
Waning Crescent, 25% of the Moon is Illuminated
Oct 29
Waning Crescent
Nov 3
New
Nov 9
First Quarter
Nov 17
Full
Nov 25
Last Quarter

Hourly Weather History & Observations

Time (CDT) Temp. Windchill Dew Point Humidity Pressure Visibility Wind Dir Wind Speed Gust Speed Precip Events Conditions
12:12 AM 35.6 °F 31.7 °F 28.4 °F 75% 30.39 in 10.0 mi ESE 4.6 mph - N/A   Clear
12:31 AM 37.4 °F 34.9 °F 28.4 °F 70% 30.39 in 10.0 mi ESE 3.5 mph - N/A   Scattered Clouds
12:52 AM 37.4 °F 34.9 °F 28.4 °F 70% 30.40 in 10.0 mi ESE 3.5 mph - N/A   Overcast
1:11 AM 35.6 °F 32.8 °F 28.4 °F 75% 30.39 in 10.0 mi ESE 3.5 mph - N/A   Scattered Clouds
1:31 AM 35.6 °F 32.8 °F 28.4 °F 75% 30.39 in 10.0 mi ESE 3.5 mph - N/A   Clear
1:52 AM 35.6 °F 32.8 °F 28.4 °F 75% 30.40 in 10.0 mi SE 3.5 mph - N/A   Clear
2:11 AM 37.4 °F 34.9 °F 28.4 °F 70% 30.40 in 10.0 mi SE 3.5 mph - N/A   Scattered Clouds
2:31 AM 35.6 °F 31.7 °F 28.4 °F 75% 30.40 in 10.0 mi SE 4.6 mph - N/A   Scattered Clouds
2:52 AM 35.6 °F 31.7 °F 28.4 °F 75% 30.40 in 10.0 mi SE 4.6 mph - N/A   Scattered Clouds
3:11 AM 35.6 °F 31.7 °F 28.4 °F 75% 30.39 in 10.0 mi SSE 4.6 mph - N/A   Mostly Cloudy
3:31 AM 35.6 °F 31.7 °F 28.4 °F 75% 30.39 in 10.0 mi SE 4.6 mph - N/A   Overcast
3:51 AM 35.6 °F 32.8 °F 28.4 °F 75% 30.38 in 10.0 mi ESE 3.5 mph - N/A   Overcast
4:11 AM 35.6 °F - 28.4 °F 75% 30.38 in 10.0 mi Calm Calm - N/A   Overcast
4:32 AM 35.6 °F 30.7 °F 28.4 °F 75% 30.38 in 10.0 mi ESE 5.8 mph - N/A   Overcast
4:51 AM 37.4 °F 32.1 °F 30.2 °F 75% 30.37 in 10.0 mi ESE 6.9 mph - N/A   Overcast
5:11 AM 35.6 °F 31.7 °F 28.4 °F 75% 30.38 in 10.0 mi ESE 4.6 mph - N/A   Overcast
5:32 AM 35.6 °F 31.7 °F 28.4 °F 75% 30.38 in 10.0 mi ESE 4.6 mph - N/A   Overcast
5:51 AM 37.4 °F 33.8 °F 30.2 °F 75% 30.37 in 10.0 mi East 4.6 mph - N/A   Overcast
6:11 AM 37.4 °F 33.8 °F 28.4 °F 70% 30.37 in 10.0 mi East 4.6 mph - N/A   Overcast
6:32 AM 37.4 °F 33.8 °F 28.4 °F 70% 30.36 in 10.0 mi ESE 4.6 mph - N/A   Overcast
6:51 AM 35.6 °F 30.7 °F 28.4 °F 75% 30.35 in 10.0 mi East 5.8 mph - N/A   Overcast
7:11 AM 35.6 °F 31.7 °F 28.4 °F 75% 30.36 in 10.0 mi ESE 4.6 mph - N/A   Overcast
7:32 AM 35.6 °F 29.9 °F 28.4 °F 75% 30.35 in 10.0 mi ESE 6.9 mph - N/A   Overcast
7:51 AM 35.6 °F 31.7 °F 28.4 °F 75% 30.35 in 10.0 mi ESE 4.6 mph - N/A   Overcast
8:11 AM 35.6 °F 31.7 °F 28.4 °F 75% 30.35 in 10.0 mi SE 4.6 mph - N/A   Overcast
8:32 AM 35.6 °F 30.7 °F 28.4 °F 75% 30.36 in 10.0 mi ESE 5.8 mph - N/A   Overcast
8:51 AM 37.4 °F 32.8 °F 28.4 °F 70% 30.35 in 10.0 mi SE 5.8 mph - N/A   Mostly Cloudy
9:11 AM 37.4 °F 32.1 °F 30.2 °F 75% 30.34 in 10.0 mi SE 6.9 mph - N/A   Mostly Cloudy
9:32 AM 37.4 °F 30.3 °F 30.2 °F 75% 30.34 in 10.0 mi SE 10.4 mph - N/A   Mostly Cloudy
9:51 AM 37.4 °F 31.4 °F 30.2 °F 75% 30.33 in 10.0 mi ESE 8.1 mph - N/A   Mostly Cloudy
10:11 AM 37.4 °F 30.8 °F 30.2 °F 75% 30.33 in 10.0 mi ESE 9.2 mph - N/A   Overcast
10:32 AM 37.4 °F 30.8 °F 30.2 °F 75% 30.32 in 10.0 mi SE 9.2 mph - N/A   Overcast
10:51 AM 37.4 °F 30.8 °F 30.2 °F 75% 30.31 in 10.0 mi ESE 9.2 mph - N/A   Overcast
11:11 AM 37.4 °F 31.4 °F 30.2 °F 75% 30.30 in 10.0 mi ESE 8.1 mph - N/A   Overcast
11:31 AM 37.4 °F 32.1 °F 30.2 °F 75% 30.30 in 10.0 mi SE 6.9 mph - N/A   Overcast
11:51 AM 39.2 °F 35.0 °F 30.2 °F 70% 30.29 in 10.0 mi ESE 5.8 mph - N/A   Mostly Cloudy
12:12 PM 41.0 °F 35.8 °F 30.2 °F 65% 30.28 in 10.0 mi ESE 8.1 mph - N/A   Mostly Cloudy
12:31 PM 41.0 °F 35.8 °F 32.0 °F 70% 30.27 in 10.0 mi ESE 8.1 mph - N/A   Scattered Clouds
12:51 PM 41.0 °F 37.1 °F 32.0 °F 70% 30.26 in 10.0 mi ESE 5.8 mph - N/A   Mostly Cloudy
1:12 PM 42.8 °F 38.6 °F 32.0 °F 66% 30.24 in 10.0 mi ESE 6.9 mph - N/A   Overcast
1:31 PM 42.8 °F 38.0 °F 32.0 °F 66% 30.22 in 10.0 mi SE 8.1 mph - N/A   Scattered Clouds
1:51 PM 42.8 °F 37.5 °F 32.0 °F 66% 30.21 in 10.0 mi East 9.2 mph - N/A   Clear
2:12 PM 44.6 °F 40.2 °F 33.8 °F 66% 30.20 in 10.0 mi ESE 8.1 mph - N/A   Scattered Clouds
2:31 PM 48.2 °F - 35.6 °F 62% 30.19 in 10.0 mi ESE 9.2 mph - N/A   Scattered Clouds
2:51 PM 48.2 °F - 33.8 °F 58% 30.18 in 10.0 mi ESE 8.1 mph - N/A   Clear
3:11 PM 48.2 °F - 35.6 °F 62% 30.17 in 10.0 mi ESE 6.9 mph - N/A   Mostly Cloudy
3:31 PM 48.2 °F - 35.6 °F 62% 30.17 in 10.0 mi ESE 5.8 mph - N/A   Overcast
3:52 PM 48.2 °F - 35.6 °F 62% 30.16 in 10.0 mi East 4.6 mph - N/A   Mostly Cloudy
4:11 PM 48.2 °F - 35.6 °F 62% 30.16 in 10.0 mi ESE 4.6 mph - N/A   Mostly Cloudy
4:31 PM 48.2 °F - 35.6 °F 62% 30.16 in 10.0 mi ESE 4.6 mph - N/A   Overcast
4:52 PM 48.2 °F - 35.6 °F 62% 30.16 in 10.0 mi ENE 3.5 mph - N/A   Overcast
5:11 PM 48.2 °F - 35.6 °F 62% 30.15 in 10.0 mi ENE 3.5 mph - N/A   Overcast
5:31 PM 48.2 °F - 35.6 °F 62% 30.15 in 10.0 mi East 4.6 mph - N/A   Overcast
5:52 PM 48.2 °F - 35.6 °F 62% 30.14 in 10.0 mi East 3.5 mph - N/A   Overcast
6:11 PM 46.4 °F 44.3 °F 35.6 °F 66% 30.14 in 10.0 mi ESE 4.6 mph - N/A   Overcast
6:32 PM 44.6 °F - 33.8 °F 66% 30.14 in 10.0 mi Calm Calm - N/A   Scattered Clouds
6:51 PM 42.8 °F - 35.6 °F 76% 30.14 in 10.0 mi Calm Calm - N/A   Mostly Cloudy
7:11 PM 44.6 °F 43.1 °F 35.6 °F 71% 30.14 in 10.0 mi ENE 3.5 mph - N/A   Mostly Cloudy
7:32 PM 41.0 °F 39.0 °F 33.8 °F 76% 30.14 in 10.0 mi ESE 3.5 mph - N/A   Scattered Clouds
7:51 PM 41.0 °F - 33.8 °F 76% 30.14 in 10.0 mi Calm Calm - N/A   Clear
8:11 PM 39.2 °F - 33.8 °F 81% 30.13 in 10.0 mi Calm Calm - N/A   Clear
8:32 PM 41.0 °F 39.0 °F 35.6 °F 81% 30.12 in 10.0 mi SSE 3.5 mph - N/A   Clear
8:51 PM 41.0 °F 37.1 °F 33.8 °F 76% 30.12 in 10.0 mi SSE 5.8 mph - N/A   Clear
9:11 PM 42.8 °F 39.3 °F 33.8 °F 70% 30.12 in 10.0 mi SE 5.8 mph - N/A   Clear
9:31 PM 41.0 °F 35.8 °F 33.8 °F 76% 30.11 in 10.0 mi SE 8.1 mph - N/A   Clear
9:51 PM 41.0 °F 37.1 °F 35.6 °F 81% 30.10 in 10.0 mi SE 5.8 mph - N/A   Clear
10:11 PM 41.0 °F 38.0 °F 35.6 °F 81% 30.10 in 10.0 mi SSE 4.6 mph - N/A   Clear
10:31 PM 42.8 °F - 35.6 °F 76% 30.11 in 10.0 mi Calm Calm - N/A   Scattered Clouds
10:51 PM 42.8 °F - 35.6 °F 76% 30.09 in 10.0 mi Calm Calm - N/A   Scattered Clouds
11:11 PM 42.8 °F - 35.6 °F 76% 30.10 in 10.0 mi Calm Calm - N/A   Mostly Cloudy
11:32 PM 42.8 °F - 35.6 °F 76% 30.09 in 10.0 mi Calm Calm - N/A   Overcast
11:51 PM 42.8 °F - 35.6 °F 76% 30.09 in 10.0 mi Calm Calm - N/A   Overcast